KF0RZX-13 Weather Reports


time (UTC)temp
C
wind
direction
speed
KPH
gust
KPH
rain 1hr
cm
rain 24hr
cm
rain mn
cm
humidity
%
barometer
mb
20260906205007 27 170 20.9 29.0 0.00 0.00 0.00 58 1016.6
20260906201959 27 170 20.9 29.0 0.00 0.00 0.00 58 1016.6
20260906194101 27 180 19.3 32.2 0.00 0.00 0.00 55 1017.3
20260906191056 27 180 19.3 32.2 0.00 0.00 0.00 55 1017.3
20260906184051 26 180 22.5 0.0 0.00 0.00 0.00 61 1018.3
20260906181046 26 180 22.5 0.0 0.00 0.00 0.00 61 1018.3
20260906174042 23 180 24.1 33.8 0.00 0.00 0.00 69 1019.0
20260906171036 23 180 24.1 33.8 0.00 0.00 0.00 69 1019.0
20260906164032 22 200 19.3 0.0 0.00 0.00 0.00 73 1019.3
20260906161026 22 200 19.3 0.0 0.00 0.00 0.00 73 1019.3
20260906154021 18 180 11.3 0.0 0.00 0.00 0.00 83 1019.0
20260906151019 18 180 11.3 0.0 0.00 0.00 0.00 83 1019.0
20260906144011 17 4.8 0.0 0.03 0.00 0.00 88 1019.3
20260906141009 17 4.8 0.0 0.03 0.00 0.00 88 1019.3
20260906134001 17 120 8.0 0.0 0.00 2.92 0.00 88 1018.6
20260906130955 17 120 8.0 0.0 0.00 2.92 0.00 88 1018.6
20260906123951 17 290 14.5 0.0 0.00 2.92 0.00 88 1018.6
20260906120948 17 290 14.5 0.0 0.00 2.92 0.00 88 1018.6
20260906113941 17 160 16.1 0.0 0.00 0.00 0.00 88 1018.3
20260906110936 17 130 20.9 0.0 0.00 0.00 0.00 83 1017.9
20260906103931 17 80 14.5 0.0 0.00 0.00 0.00 77 1017.6
20260906100926 17 80 14.5 0.0 0.00 0.00 0.00 77 1017.6
20260906093921 17 140 22.5 0.0 0.00 0.00 0.00 77 1017.6
20260906090916 17 90 12.9 0.0 0.00 0.00 0.00 77 1017.6
20260906083910 17 100 24.1 0.0 0.00 0.00 0.00 77 1017.6
20260906080905 17 100 24.1 0.0 0.00 0.00 0.00 77 1017.6
20260906073901 17 90 14.5 38.6 0.00 0.00 0.00 83 1017.9
20260906070855 17 70 22.5 40.2 0.00 0.00 0.00 83 1017.6
20260906063851 17 100 35.4 77.2 0.99 0.00 0.00 77 1019.0
20260906060847 17 90 22.5 49.9 0.08 0.00 0.00 88 1019.6
20260906053840 17 140 24.1 0.0 0.03 0.00 0.00 94 1020.0
20260906050835 18 110 32.2 46.7 4.42 0.00 0.00 94 1019.0
20260906043830 18 8.0 0.0 1.55 0.00 0.00 94 1020.7
20260906040825 17 250 40.2 69.2 1.19 0.00 0.00 100 1021.0
20260906033821 21 20 29.0 0.0 0.00 0.00 0.00 78 1017.3
20260906030815 20 360 32.2 0.0 0.10 0.00 0.00 83 1017.9
20260906023811 26 70 20.9 0.0 0.00 0.00 0.00 48 1016.6
20260906020807 23 70 16.1 35.4 0.00 0.00 0.00 54 1016.6
20260906013800 26 150 32.2 48.3 0.00 0.00 0.00 42 1014.6
20260906010755 26 150 32.2 48.3 0.00 0.00 0.00 42 1014.6
20260906003751 27 160 59.5 78.9 0.00 0.00 0.00 51 1015.9
20260906000747 27 160 59.5 78.9 0.00 0.00 0.00 51 1015.9
20260905233740 33 140 29.0 46.7 0.00 0.00 0.00 32 1014.2
20260905230736 33 140 29.0 46.7 0.00 0.00 0.00 32 1014.2
20260905223730 35 150 24.1 41.8 0.00 0.00 0.00 28 1014.6
20260905220729 35 150 24.1 41.8 0.00 0.00 0.00 28 1014.6
20260905213710 35 150 27.4 48.3 0.00 0.00 0.00 28 1015.6
20260905210702 35 150 27.4 48.3 0.00 0.00 0.00 28 1015.6